Etusivu
METAR-TAF:

METAR-TAF

Lentoasemat :

Torsbyn, Ruotsi

Leveyspiiri: 60-09-17N, Pituuspiiri: 12-59-40E, korkeus merenpinnasta: 120 m

Tämänhetkinen sää

Tämä raportti tehtiin 29 minuuttia sitten, kello 15.20 UTC
Tuuli 2 kn pohjoisesta/koillisesta
Lämpötila 11°C
Kosteus 76%
Ilmanpaine 1025 hPa
Näkyvyys 10 km tai enemmän
Pilvistä 2500 ft:n korkeudessa

METAR: ESST 211520Z 02002KT 9999 OVC025 11/07 Q1025

Aika: 17:49 (15:49 UTC)


TAF: puuttuu

Säähavainnot ja -ennusteet yli 4000 lentoasemalta (METAR- ja TAF-raportit).

Käytössä olevat sääasemat on merkitty karttaan keltaisilla ja punaisilla pisteillä.

Aseta hiiri pisteen päälle nähdäksesi sääaseman nimen.

Klikkaa sitten nähdäksesi säähavainnot ja -ennusteet.

Kartan vaihtaminen: klikkaa mustalla rastilla varustettuja vihreitä pisteitä, niin voit zoomata sisään; viivalla varustettua vihreää pistettä, niin voit zoomata ulos tai vihreitä nuolia, niin pääset viereisille kartoille.


METAR-TAF: